Location: G�ndlingen
(48.0142°N, 7.6396°E)
Time: 03:03:13
(UTC+00:00)

GEOS 3 Rocket - Pass Details

Date: 05 July 2020
Orbit: 771 x 848 km, 115.0° (Epoch: 04 August)

Event Time Altitude Azimuth Distance (km) Brightness Sun altitude
Rises 20:55:43 0° 40° (NE) 3,410 7.0 -10.9°
Reaches altitude 10° 20:58:02 10° 40° (NE) 2,476 6.3 -11.1°
Maximum altitude 21:03:28 88° 128° (SE) 855 3.7 -11.6°
Drops below altitude 10° 21:08:52 10° 221° (SW) 2,463 6.0 -12.2°
Sets 21:11:10 0° 222° (SW) 3,391 6.7 -12.4°
